Flag for Canada Weather past 2 weeks in Kingston, Ontario, Canada

Now
9 °F

Passing clouds.


Feels Like: -5 °F
Forecast: 0 / 10 °F
Wind: 9 mph from Northeast

Location: Kingston

Current Time: Jan 25, 2015 at 10:02:47 PM

Latest Report: Jan 25, 2015 at 9:00 PM


Visibility: 15 mi

Pressure: 30.13 "Hg

Humidity: 56%

Dew point: -4 °F

Location of KingstonLocation

Historic Weather in Kingston — Graph

°F

Kingston temperature yesterday

Maximum temperature yesterday: 30 °F (at 6:00 AM)
Minimum temperature yesterday: 28 °F (at 8:00 AM)
Average temperature yesterday: 29 °F

Past Weeks' High & Low Weather Summary

 TemperatureHumidityPressure
High36 °F (Jan 18, 12:00 PM)100% (Jan 12, 12:00 PM)30.87 "Hg (Jan 12, 12:00 PM)
Low-9 °F (Jan 13, 7:00 AM)41% (Jan 16, 4:00 PM)29.41 "Hg (Jan 24, 10:00 PM)
Average18 °F73%30.11 "Hg
* Reported Jan 10 9:00 PM — Jan 25 9:00 PM, Kingston, Weather by CustomWeather, © 2014

Note: Actual official high and low records may vary slightly from our data, if they occured in-between our weather recording intervals... More about our weather records

Advertising

Kingston weather history for previous 24 hours

 ConditionsComfort  
Time TempWeatherWind HumidityBarometerVisibility
9:00 PM
Jan 25
9 °FPassing clouds.9 mph56%30.13 "Hg15 mi
8:00 PM9 °FPassing clouds.6 mph66%30.11 "Hg15 mi
7:00 PM10 °FPassing clouds.3 mph67%30.08 "Hg15 mi
6:00 PM12 °FPassing clouds.2 mph67%30.05 "Hg15 mi
5:00 PM14 °FPassing clouds.3 mph62%30.02 "Hg15 mi
4:00 PM16 °FPassing clouds.8 mph53%30.00 "Hg15 mi
3:00 PM16 °FPassing clouds.3 mph41%29.97 "Hg15 mi
2:00 PM16 °FPassing clouds.7 mph45%29.94 "Hg15 mi
1:00 PM14 °FPassing clouds.5 mph48%29.93 "Hg15 mi
12:00 PM10 °FSunny.6 mph52%29.93 "Hg15 mi
11:00 AM10 °FSunny.10 mph56%29.93 "Hg15 mi
10:00 AM9 °FSunny.10 mph61%29.91 "Hg15 mi
9:00 AM7 °FSunny.10 mph61%29.89 "Hg15 mi
8:00 AM7 °FSunny.15 mph61%29.85 "Hg15 mi
7:00 AM7 °FClear.16 mph66%29.80 "Hg15 mi
6:00 AM10 °FPassing clouds.13 mph61%29.75 "Hg15 mi
11:00 PM
Jan 24
30 °FMostly cloudy.12 mph93%29.41 "Hg8 mi
10:00 PM30 °FLight snow. Overcast.12 mph93%29.41 "Hg6 mi
Weather by CustomWeather, © 2014

See weather overviewHow to use our weather pages